• In Kazakhstan
  • List of Countries
  • For 7 days
  • Water Temperature
  • Satellite Maps
  • Weather Map
  • News
  • Weather Widgets
  • user-avatar
    Login

    Hourly Weather Mercin

    Today, 20 September, Wednesday

    Time Temperature Precipitation Wind Pressure Humidity
    00:00 +28°C° 0 mm 1 mps 757 mmHg 69%
    01:00 +28°C° 0 mm 1 mps 756 mmHg 70%
    02:00 +27°C° 0 mm 1 mps 756 mmHg 71%
    03:00 +27°C° 0 mm 1 mps 756 mmHg 69%
    04:00 +27°C° 0 mm 1 mps 756 mmHg 67%
    05:00 +27°C° 0 mm 1 mps 756 mmHg 65%
    06:00 +29°C° 0 mm 1 mps 757 mmHg 57%
    07:00 +31°C° 0 mm 1 mps 757 mmHg 50%
    08:00 +33°C° 0 mm 1 mps 757 mmHg 42%
    09:00 +35°C° 0 mm 2 mps 757 mmHg 39%
    10:00 +36°C° 0 mm 3 mps 757 mmHg 35%
    11:00 +38°C° 0 mm 3 mps 756 mmHg 32%
    12:00 +38°C° 0 mm 4 mps 756 mmHg 32%
    13:00 +38°C° 0 mm 4 mps 756 mmHg 33%
    14:00 +39°C° 0 mm 5 mps 756 mmHg 34%
    15:00 +37°C° 0 mm 5 mps 755 mmHg 36%
    16:00 +37°C° 0 mm 5 mps 755 mmHg 39%
    17:00 +36°C° 0 mm 5 mps 755 mmHg 42%
    18:00 +34°C° 0 mm 4 mps 756 mmHg 45%
    19:00 +33°C° 0 mm 3 mps 756 mmHg 49%
    20:00 +30°C° 0 mm 3 mps 756 mmHg 53%
    21:00 +30°C° 0 mm 3 mps 756 mmHg 53%
    22:00 +29°C° 0 mm 2 mps 756 mmHg 54%
    23:00 +29°C° 0 mm 2 mps 757 mmHg 55%

    Tomorrow, 21 September, Thursday

    Time Temperature Precipitation Wind Pressure Humidity
    00:00 +29°C° 0 mm 2 mps 757 mmHg 55%
    01:00 +28°C° 0 mm 2 mps 756 mmHg 55%
    02:00 +28°C° 0 mm 1 mps 756 mmHg 55%
    03:00 +28°C° 0 mm 1 mps 757 mmHg 55%
    04:00 +28°C° 0 mm 1 mps 757 mmHg 56%
    05:00 +28°C° 0 mm 1 mps 757 mmHg 56%
    06:00 +29°C° 0 mm 2 mps 757 mmHg 51%
    07:00 +31°C° 0 mm 2 mps 757 mmHg 47%
    08:00 +34°C° 0 mm 2 mps 757 mmHg 43%
    09:00 +35°C° 0 mm 3 mps 757 mmHg 40%
    10:00 +37°C° 0 mm 3 mps 757 mmHg 38%
    11:00 +38°C° 0 mm 4 mps 756 mmHg 36%
    12:00 +38°C° 0 mm 4 mps 756 mmHg 38%
    13:00 +39°C° 0 mm 5 mps 756 mmHg 39%
    14:00 +39°C° 0 mm 5 mps 755 mmHg 41%
    15:00 +37°C° 0 mm 5 mps 755 mmHg 45%
    16:00 +36°C° 0 mm 4 mps 755 mmHg 49%
    17:00 +35°C° 0 mm 4 mps 755 mmHg 52%
    18:00 +33°C° 0 mm 3 mps 755 mmHg 56%
    19:00 +31°C° 0 mm 3 mps 756 mmHg 59%
    20:00 +30°C° 0 mm 2 mps 756 mmHg 63%
    21:00 +29°C° 0 mm 2 mps 756 mmHg 64%
    22:00 +29°C° 0 mm 2 mps 756 mmHg 64%
    23:00 +28°C° 0 mm 2 mps 756 mmHg 65%

    Day after tomorrow, 22 September, Friday

    Time Temperature Precipitation Wind Pressure Humidity
    00:00 +28°C° 0 mm 2 mps 756 mmHg 67%
    01:00 +27°C° 0 mm 2 mps 756 mmHg 68%
    02:00 +27°C° 0 mm 2 mps 756 mmHg 70%
    03:00 +27°C° 0 mm 2 mps 756 mmHg 73%
    04:00 +26°C° 0 mm 2 mps 756 mmHg 76%
    05:00 +25°C° 0 mm 2 mps 756 mmHg 79%
    06:00 +27°C° 0 mm 3 mps 756 mmHg 73%
    07:00 +28°C° 0 mm 3 mps 756 mmHg 66%
    08:00 +29°C° 0 mm 3 mps 756 mmHg 60%
    09:00 +30°C° 0 mm 4 mps 756 mmHg 55%
    10:00 +32°C° 0 mm 5 mps 756 mmHg 50%
    11:00 +33°C° 0 mm 5 mps 756 mmHg 45%
    12:00 +33°C° 0 mm 6 mps 756 mmHg 43%
    13:00 +34°C° 0 mm 6 mps 756 mmHg 41%
    14:00 +34°C° 0 mm 7 mps 756 mmHg 39%
    15:00 +33°C° 0 mm 6 mps 756 mmHg 44%
    16:00 +32°C° 0 mm 6 mps 756 mmHg 48%
    17:00 +30°C° 0 mm 6 mps 756 mmHg 52%
    18:00 +28°C° 0 mm 5 mps 757 mmHg 56%
    19:00 +27°C° 0 mm 4 mps 757 mmHg 60%
    20:00 +26°C° 0 mm 4 mps 758 mmHg 64%
    21:00 +26°C° 0 mm 3 mps 758 mmHg 63%
    22:00 +25°C° 0 mm 2 mps 758 mmHg 63%
    23:00 +25°C° 0 mm 2 mps 759 mmHg 62%

    23 September, Saturday

    Time Temperature Precipitation Wind Pressure Humidity
    00:00 +24°C° 0 mm 2 mps 759 mmHg 62%
    01:00 +24°C° 0 mm 2 mps 759 mmHg 62%
    02:00 +24°C° 0 mm 2 mps 759 mmHg 61%
    03:00 +23°C° 0 mm 2 mps 759 mmHg 60%
    04:00 +23°C° 0 mm 2 mps 759 mmHg 59%
    05:00 +23°C° 0 mm 2 mps 759 mmHg 57%
    06:00 +24°C° 0 mm 2 mps 759 mmHg 51%
    07:00 +26°C° 0 mm 2 mps 759 mmHg 45%
    08:00 +28°C° 0 mm 2 mps 760 mmHg 39%
    09:00 +29°C° 0 mm 2 mps 760 mmHg 37%
    10:00 +30°C° 0 mm 2 mps 759 mmHg 34%
    11:00 +32°C° 0 mm 2 mps 759 mmHg 32%
    12:00 +32°C° 0 mm 2 mps 759 mmHg 32%
    13:00 +34°C° 0 mm 3 mps 759 mmHg 32%
    14:00 +34°C° 0 mm 4 mps 758 mmHg 32%
    15:00 +33°C° 0 mm 4 mps 758 mmHg 37%
    16:00 +31°C° 0 mm 3 mps 758 mmHg 42%
    17:00 +30°C° 0 mm 3 mps 758 mmHg 47%
    18:00 +29°C° 0 mm 3 mps 759 mmHg 52%
    19:00 +27°C° 0 mm 2 mps 759 mmHg 57%
    20:00 +26°C° 0 mm 1 mps 759 mmHg 62%
    21:00 +25°C° 0 mm 1 mps 759 mmHg 64%
    22:00 +25°C° 0 mm 1 mps 759 mmHg 65%
    23:00 +25°C° 0 mm 1 mps 759 mmHg 66%

    24 September, Sunday

    Time Temperature Precipitation Wind Pressure Humidity
    00:00 +24°C° 0 mm 1 mps 759 mmHg 68%
    01:00 +24°C° 0 mm 1 mps 759 mmHg 69%
    02:00 +23°C° 0 mm 1 mps 759 mmHg 71%
    03:00 +23°C° 0 mm 1 mps 759 mmHg 72%
    04:00 +23°C° 0 mm 1 mps 759 mmHg 73%
    05:00 +22°C° 0 mm 1 mps 759 mmHg 75%
    06:00 +24°C° 0 mm 1 mps 759 mmHg 68%
    07:00 +26°C° 0 mm 1 mps 759 mmHg 61%
    08:00 +28°C° 0 mm 1 mps 759 mmHg 54%
    09:00 +29°C° 0 mm 1 mps 759 mmHg 47%
    10:00 +31°C° 0 mm 1 mps 759 mmHg 41%
    11:00 +32°C° 0 mm 2 mps 758 mmHg 35%
    12:00 +34°C° 0 mm 2 mps 758 mmHg 33%
    13:00 +34°C° 0 mm 2 mps 758 mmHg 32%
    14:00 +34°C° 0 mm 2 mps 757 mmHg 30%
    15:00 +34°C° 0 mm 2 mps 757 mmHg 34%
    16:00 +32°C° 0 mm 2 mps 757 mmHg 37%
    17:00 +31°C° 0 mm 2 mps 757 mmHg 41%
    18:00 +30°C° 0 mm 2 mps 758 mmHg 46%
    19:00 +28°C° 0 mm 2 mps 758 mmHg 50%
    20:00 +27°C° 0 mm 2 mps 758 mmHg 55%
    21:00 +26°C° 0 mm 2 mps 758 mmHg 52%
    22:00 +26°C° 0 mm 2 mps 758 mmHg 50%
    23:00 +25°C° 0 mm 2 mps 758 mmHg 48%

    25 September, Monday

    Time Temperature Precipitation Wind Pressure Humidity
    00:00 +25°C° 0 mm 2 mps 757 mmHg 42%
    01:00 +25°C° 0 mm 3 mps 757 mmHg 35%
    02:00 +25°C° 0 mm 3 mps 757 mmHg 28%
    03:00 +25°C° 0 mm 3 mps 757 mmHg 23%
    04:00 +25°C° 0 mm 3 mps 757 mmHg 17%
    05:00 +25°C° 0 mm 3 mps 757 mmHg 11%
    06:00 +28°C° 0 mm 3 mps 757 mmHg 15%
    07:00 +30°C° 0 mm 3 mps 757 mmHg 19%
    08:00 +32°C° 0 mm 2 mps 757 mmHg 23%
    09:00 +34°C° 0 mm 2 mps 757 mmHg 24%
    10:00 +35°C° 0 mm 2 mps 757 mmHg 24%
    11:00 +37°C° 0 mm 2 mps 757 mmHg 24%
    12:00 +37°C° 0 mm 3 mps 756 mmHg 24%
    13:00 +37°C° 0 mm 3 mps 756 mmHg 23%
    14:00 +37°C° 0 mm 4 mps 755 mmHg 22%
    15:00 +36°C° 0 mm 3 mps 755 mmHg 23%
    16:00 +36°C° 0 mm 3 mps 755 mmHg 24%
    17:00 +35°C° 0 mm 3 mps 756 mmHg 25%
    18:00 +33°C° 0 mm 3 mps 756 mmHg 29%
    19:00 +30°C° 0 mm 3 mps 756 mmHg 32%
    20:00 +29°C° 0 mm 3 mps 756 mmHg 35%
    21:00 +28°C° 0 mm 3 mps 756 mmHg 36%
    22:00 +28°C° 0 mm 3 mps 756 mmHg 37%
    23:00 +27°C° 0 mm 2 mps 756 mmHg 38%
    Show more